#timestamp,LO_Frequency,Hit,StdDev 
1663315215.1,286046998.9,N
1663315235.8,286046998.7,N
1663315255.7,286046999.5,N
1663315275.5,286046999.0,N
1663315295.4,286047000.8,N
1663315315.2,286047000.1,N
1663315335.0,286047000.7,N
1663315335.9,286047000.7,N
1663315355.8,286046999.7,N
1663315375.6,286047002.2,N
1663315395.5,286047003.9,Y
1663315415.3,286047004.3,P
1663315435.1,286047001.9,N
1663315455.9,286047000.3,N
1663315475.7,286047002.5,N
1663315495.6,286046999.6,N
1663315515.4,286046999.6,N
1663315535.2,286047000.7,N
1663315555.1,286047000.9,N
1663315556.0,286047000.9,N
1663315575.8,286047000.9,N
1663315595.6,286047002.8,N
1663315615.5,286047004.3,Y
1663315635.3,286047002.2,P
1663315655.2,286046999.9,N
1663315675.9,286047002.3,N
1663315695.7,286047002.6,N
1663315715.6,286047001.5,N
1663315735.4,286047001.8,N
1663315755.2,286047003.9,Y
1663315775.1,286047002.0,P
1663315776.0,286047002.0,P
1663315795.8,286047002.1,P
1663315815.7,286047002.0,Y
1663315835.5,286047000.6,P
1663315855.3,286047000.4,N
1663315875.2,286046998.9,N
1663315895.0,286046999.2,N
1663315895.9,286046999.2,N
1663315915.8,286046997.2,N
1663315935.6,286046997.4,N
1663315955.4,286046997.7,N
1663315975.3,286046995.5,Y
1663315995.1,286046995.7,P
1663316015.9,286046993.4,P
1663316035.7,286046996.4,N
1663316055.5,286046995.8,N
1663316075.4,286046996.0,N
1663316095.2,286046994.2,Y
1663316115.0,286046998.7,P
1663316116.0,286046998.7,N
1663316135.8,286046998.7,N
1663316155.6,286046998.7,N
1663316175.5,286046999.4,N
1663316195.3,286046997.0,N
1663316215.1,286046997.0,N
1663316235.9,286046997.5,N
1663316255.7,286046996.6,Y
1663316275.6,286046998.4,P
1663316295.4,286046999.4,N
1663316315.2,286046996.5,P
1663316335.1,286046998.2,N
1663316336.0,286046998.2,N
1663316355.8,286046998.2,N
1663316375.7,286046998.6,N
1663316395.5,286046998.9,N
1663316415.3,286046999.1,N
1663316435.2,286046998.9,N
1663316455.0,286046999.0,N
1663316455.9,286046999.0,N
1663316475.8,286046998.8,N
1663316495.6,286046998.9,N
1663316515.4,286046997.0,Y
1663316535.3,286046998.3,P
1663316555.1,286046999.3,P
1663316575.9,286046998.8,N
1663316595.7,286046998.6,Y
1663316615.5,286047000.3,P
1663316635.4,286046998.1,N
1663316655.2,286046998.3,N
1663316675.1,286046999.5,N
1663316676.0,286046999.5,N
1663316695.8,286046999.2,N
1663316715.6,286046999.1,N
1663316735.5,286046996.9,Y
1663316755.3,286046999.4,P
1663316775.1,286046996.8,P
1663316795.9,286046997.3,N
1663316815.7,286046997.3,N
1663316835.6,286046996.9,N
1663316855.4,286046996.7,Y
1663316875.2,286047000.5,P
1663316895.1,286047000.8,N
1663316896.0,286047000.8,N
1663316915.8,286047002.8,N
1663316935.7,286046999.9,N
1663316955.5,286047000.4,N
1663316975.3,286046999.9,N
1663316995.2,286047000.1,N
1663317015.9,286047000.1,N
1663317035.7,286046999.7,N
1663317055.6,286047001.9,N
1663317075.4,286047002.8,N
1663317095.2,286047000.1,N
1663317115.1,286047000.9,N
1663317116.0,286047000.9,N
1663317135.8,286047000.9,N
1663317155.7,286047000.3,N
1663317175.5,286046999.8,N
1663317195.3,286047000.4,N
1663317215.2,286046998.6,N
1663317235.0,286047001.1,N
1663317235.9,286047001.1,N
1663317255.8,286047001.1,N
1663317275.6,286046998.6,N
1663317295.4,286047000.5,N
1663317315.3,286047001.1,N
1663317335.1,286047002.3,N
1663317385.9,286046998.5,E
1663317395.8,286047001.1,N
1663317415.6,286047000.5,P
1663317435.5,286047001.0,P
1663317455.3,286047001.2,Y
1663317475.1,286046999.6,P
1663317495.9,286046998.4,N
1663317515.7,286046999.4,N
1663317535.6,286046999.1,N
1663317555.4,286046996.8,Y
1663317575.2,286046999.4,P
1663317595.1,286046998.1,P
1663317596.0,286046998.1,P
1663317615.8,286046998.3,N
1663317635.7,286046998.6,N
1663317655.5,286046998.2,Y
1663317675.3,286047000.3,P
1663317695.2,286047000.3,N
1663317715.0,286047000.0,N
1663317715.9,286047000.0,N
1663317735.7,286047001.1,N
1663317755.6,286047001.1,N
1663317775.4,286046998.6,N
1663317795.3,286046998.7,N
1663317815.1,286046998.7,N
1663317816.0,286046998.7,N
1663317835.8,286046998.6,N
1663317855.7,286046998.4,N
1663317875.5,286046998.4,N
1663317895.3,286046998.5,N
1663317915.2,286046998.9,N
1663317935.0,286046998.4,N
1663317935.9,286046998.4,N
1663317955.8,286046998.7,N
1663317975.6,286047001.2,N
1663317995.4,286047000.8,N
1663318015.3,286046999.1,N
1663318035.1,286046998.6,N
1663318055.9,286046998.3,N
1663318075.7,286047001.2,N
1663318095.5,286047001.1,N
1663318115.4,286046998.5,N
1663318135.2,286046998.9,N
1663318155.0,286046998.4,N
1663318155.9,286046998.4,N
1663318175.8,286046998.3,N
1663318195.6,286047000.6,N
1663318215.5,286046998.1,N
1663318235.3,286046998.4,N
1663318255.1,286046999.4,N
1663318275.9,286046998.6,N
1663318295.7,286046998.8,N
1663318315.5,286046998.9,N
1663318335.4,286046999.2,N
1663318355.2,286046999.3,N
1663318375.1,286046997.0,Y
1663318376.0,286046997.0,P
1663318395.8,286046998.1,N
1663318415.6,286047000.8,N
1663318435.5,286047000.6,N
1663318455.3,286046998.2,N
1663318475.2,286046998.7,N
1663318495.9,286046999.3,N
1663318515.7,286046998.6,N
1663318535.6,286047000.5,N
1663318555.4,286047000.4,N
1663318575.2,286047001.2,N
1663318595.1,286047001.1,N
1663318596.0,286047001.1,N
1663318615.8,286047000.5,N
1663318635.7,286046998.1,N
1663318655.5,286046999.0,N
1663318675.3,286046998.7,N
1663318695.2,286046999.5,N
1663318715.0,286046999.1,N
1663318715.9,286046999.1,N
1663318735.7,286046998.8,N
1663318755.6,286047000.7,N
1663318775.4,286047000.9,N
1663318795.3,286047001.0,N
